Overview Statistics Trail Chart Weather Telemetry Raw packets
 

This is the latest recevied weather packets stored in our database for station/object 4S6DRJ-13. If no packets are shown the sender has not sent any weather packets the latest 10 day(s).

<< 127 128 129 130 131 132 133 >>
Time Temp. Humidity Pressure Rain* Wind** Luminosity Snow
1788267904 28.89° C 80% 1009.2 hPa 0 mm 1.34 m/s, 270° 0 W/m² -
1788267843 28.89° C 80% 1009.1 hPa 0 mm 1.79 m/s, 69° 0 W/m² -
1788267782 28.89° C 80% 1009.1 hPa 0 mm 0.89 m/s, 278° 0 W/m² -
1788267721 28.89° C 80% 1008.9 hPa 0 mm 0.89 m/s, 217° 0 W/m² -
1788267660 28.89° C 80% 1009.1 hPa 0 mm 1.34 m/s, 233° 0 W/m² -
1788267599 28.89° C 80% 1009 hPa 0 mm 1.79 m/s, 299° 0 W/m² -
1788267538 28.89° C 80% 1009 hPa 0 mm 2.24 m/s, 194° 1 W/m² -
1788267478 28.89° C 81% 1009 hPa 0 mm 0.89 m/s, 254° 1 W/m² -
1788267416 28.89° C 81% 1009 hPa 0 mm 0.45 m/s, 225° 1 W/m² -
1788267355 28.89° C 81% 1008.8 hPa 0 mm 0.89 m/s, 314° 1 W/m² -
1788267294 28.89° C 81% 1008.9 hPa 0 mm 0.45 m/s, 181° 1 W/m² -
1788267234 28.89° C 81% 1008.8 hPa 0 mm 0.89 m/s, 251° 1 W/m² -
1788267172 28.89° C 81% 1008.8 hPa 0 mm 0.89 m/s, 217° 2 W/m² -
1788267111 28.89° C 81% 1008.9 hPa 0 mm 1.34 m/s, 154° 2 W/m² -
1788267050 28.89° C 81% 1008.8 hPa 0 mm 1.34 m/s, 237° 3 W/m² -
1788266989 28.89° C 81% 1008.7 hPa 0 mm 0.89 m/s, 237° 3 W/m² -
1788266929 28.89° C 81% 1008.7 hPa 0 mm 0.45 m/s, 2° 3 W/m² -
1788266867 28.89° C 81% 1008.8 hPa 0 mm 0.89 m/s, 291° 4 W/m² -
1788266806 28.89° C 81% 1008.7 hPa 0 mm 0 m/s 4 W/m² -
1788266745 28.89° C 81% 1008.8 hPa 0 mm 1.34 m/s, 289° 5 W/m² -
1788266684 28.89° C 80% 1008.7 hPa 0 mm 2.24 m/s, 261° 6 W/m² -
1788266623 28.89° C 80% 1008.7 hPa 0 mm 0.45 m/s, 193° 7 W/m² -
1788266562 28.89° C 80% 1008.8 hPa 0 mm 1.34 m/s, 264° 8 W/m² -
1788266501 28.89° C 80% 1008.8 hPa 0 mm 1.34 m/s, 279° 9 W/m² -
1788266440 28.89° C 80% 1008.8 hPa 0 mm 1.79 m/s, 221° 10 W/m² -

* Rain latest hour (hover to see other rain measurements)
** Current wind speed in m/s (hover to see current wind gust speed)